Home > Weather > Los Angeles > Past weeks

Flag for USA Past Weather in Los Angeles, California, USA — Yesterday and Last 2 Weeks

Now
70 °F

Sunny.


Feels Like: 76 °F
Forecast: 59 / 71 °F
Wind: 3 mph from North

Location: Los Angeles / USC Campus Downtown

Current Time: May 28, 2016 at 3:10:35 PM

Latest Report: May 28, 2016 at 2:47 PM


Visibility: 10 mi

Pressure: 29.86 "Hg

Humidity: 61%

Dew Point: 56 °F

Location of Los AngelesLocation

Past Weather in Los Angeles — Graph

°F

Los Angeles Temperature Yesterday

Maximum temperature yesterday: 73 °F (at 12:47 PM)
Minimum temperature yesterday: 59 °F (at 1:47 AM)
Average temperature yesterday: 64 °F

High & Low Weather Summary for the Past Weeks

 TemperatureHumidityPressure
High76 °F (May 13, 1:47 PM)86% (May 18, 8:47 PM)30.09 "Hg (May 18, 8:47 PM)
Low56 °F (May 21, 3:47 AM)41% (May 21, 11:47 AM)29.81 "Hg (May 19, 5:47 PM)
Average64 °F68%29.94 "Hg
* Reported May 13 1:47 PM — May 28 1:47 PM, Los Angeles, Weather by CustomWeather, © 2016

Note: Actual official high and low records may vary slightly from our data, if they occured in-between our weather recording intervals... More about our weather records

Advertising

Los Angeles Weather History for the Previous 24 Hours

Scroll right to see more
 ConditionsComfort  
Time TempWeatherWind HumidityBarometerVisibility
1:47 PM
Sat, May 28
72 °FSunny.No wind59%29.86 "Hg10 mi
12:59 PM71 °FScattered clouds.No wind59%29.88 "Hg9 mi
12:47 PM70 °FPartly sunny.3 mph64%29.88 "Hg9 mi
11:47 AM68 °FOvercast.3 mph63%29.89 "Hg10 mi
10:47 AM67 °FOvercast.5 mph63%29.89 "Hg9 mi
9:47 AM65 °FOvercast.3 mph68%29.89 "Hg8 mi
8:47 AM64 °FOvercast.No wind70%29.88 "Hg7 mi
7:47 AM63 °FOvercast.No wind73%29.87 "Hg6 mi
6:47 AM63 °FOvercast.No wind75%29.85 "Hg6 mi
5:47 AM62 °FOvercast.No wind78%29.84 "Hg8 mi
4:47 AM62 °FOvercast.No wind75%29.83 "Hg7 mi
3:47 AM62 °FOvercast.No wind75%29.83 "Hg7 mi
2:47 AM62 °FOvercast.3 mph78%29.83 "Hg8 mi
1:47 AM62 °FOvercast.No wind78%29.85 "Hg9 mi
12:47 AM61 °FOvercast.No wind78%29.87 "Hg10 mi
11:47 PM
Fri, May 27
60 °FClear.No wind80%29.87 "Hg10 mi
10:47 PM60 °FClear.No wind80%29.88 "Hg10 mi
9:47 PM61 °FPassing clouds.5 mph75%29.88 "Hg10 mi
8:47 PM62 °FOvercast.No wind78%29.87 "Hg10 mi
7:47 PM63 °FOvercast.No wind78%29.86 "Hg10 mi
6:47 PM66 °FSunny.6 mph70%29.84 "Hg10 mi
5:47 PM68 °FSunny.6 mph68%29.83 "Hg10 mi
4:47 PM69 °FSunny.3 mph63%29.83 "Hg10 mi
3:47 PM71 °FSunny.9 mph59%29.84 "Hg10 mi
Weather by CustomWeather, © 2016

See weather overviewHow to use our weather pages